RH
13 12 13 14 14 15 14 15 15 16 16 15 15 15 15 15 16 15 15 15 16 17 17 18 19 20 22 25 28 28 32 37 39 47 52 56 70 73 71 88 103 102 96 87 78 76 72 70 72 74 72 72 75 75 75 79 80 81 80 77 77 76 74
13 12 13 14 14 15 14 15 15 15 16 15 14 14 14 15 15 15 15 15 15 15 16 19 19 20 22 27 32 33 36 42 44 52 59 58 69 80 75 83 99 104 101 96 90 86 83 80 81 82 79 79 82 82 83 85 83 82 82 80 79 77 72
13 13 14 15 15 15 14 15 15 15 16 15 14 14 14 14 15 14 14 14 15 15 17 21 22 21 26 36 40 37 40 49 54 59 65 62 68 81 81 81 92 101 102 100 98 94 91 89 88 88 86 86 88 87 86 86 85 84 83 80 79 77 72
14 14 15 15 14 14 14 15 15 16 16 15 15 15 14 14 14 13 14 15 16 17 19 24 27 26 32 44 49 44 47 57 63 68 72 72 76 85 88 87 92 100 103 102 100 98 95 95 94 93 90 88 89 87 86 86 85 85 83 81 79 77 74
15 16 16 15 14 14 15 15 16 16 15 15 15 15 14 14 14 14 15 16 17 19 22 27 30 30 37 53 59 56 58 67 73 78 81 82 85 90 94 96 99 102 103 101 101 100 98 96 95 94 89 87 88 88 87 87 86 85 84 82 80 79 77
17 17 16 15 15 15 15 16 16 15 14 15 15 15 15 15 15 15 16 18 19 21 24 29 33 37 47 64 72 72 75 80 84 87 89 90 93 97 100 102 103 102 101 100 100 100 100 98 96 94 90 87 87 88 89 90 89 87 85 83 83 81 79
17 17 16 16 15 15 16 15 15 15 15 15 15 16 17 16 17 17 16 18 20 23 29 35 40 47 56 69 81 86 90 93 95 96 97 97 99 101 102 102 101 100 100 100 100 100 100 99 95 93 91 88 87 89 91 91 92 92 90 87 85 82 80
18 18 17 16 15 15 16 15 15 15 14 15 17 20 20 19 19 19 19 21 25 31 36 42 48 55 63 74 86 94 98 99 101 102 101 101 101 101 101 101 100 100 100 100 100 100 99 98 97 94 92 90 89 92 93 92 94 97 93 89 87 85 83
20 19 17 16 16 15 16 16 15 15 16 18 19 20 22 24 27 30 31 31 35 41 43 51 65 73 77 85 92 98 100 100 101 101 101 101 100 100 100 100 100 100 100 101 101 100 99 98 96 93 92 92 92 94 97 94 94 95 91 89 90 88 85
21 20 17 16 16 16 16 16 15 16 18 20 25 32 38 44 50 54 58 61 66 69 70 78 90 93 93 96 98 99 100 100 100 100 100 100 100 101 101 100 101 100 99 102 103 101 100 98 97 94 92 94 94 95 96 94 93 93 91 92 94 89 84
21 19 18 17 17 17 16 16 17 19 19 23 47 75 82 81 85 87 89 93 94 95 95 97 100 100 100 101 100 100 100 100 100 100 100 101 99 99 99 99 103 102 100 101 102 101 101 101 100 98 93 94 96 95 93 91 91 94 95 97 97 93 87
20 18 19 19 19 18 18 19 19 23 23 24 53 93 103 97 99 100 99 100 100 100 100 100 100 100 100 100 99 100 100 100 101 101 100 99 96 95 96 97 102 103 101 103 102 101 101 100 100 100 97 96 95 91 90 92 94 98 100 100 98 96 92
19 19 20 23 24 20 19 21 20 24 27 22 42 84 102 100 100 100 100 101 100 100 100 100 101 100 99 101 100 100 101 101 101 99 97 96 96 96 94 95 98 100 102 103 102 102 102 100 100 101 98 91 88 89 94 99 100 100 100 100 100 100 99
21 21 23 28 31 26 20 21 21 24 26 23 44 86 103 99 100 100 99 101 100 100 101 99 100 100 100 100 97 95 99 101 99 99 99 99 100 98 94 94 95 97 98 99 100 102 100 96 96 96 93 90 91 97 101 101 100 100 100 101 100 97 96
25 26 29 33 38 32 22 20 22 25 25 27 55 95 104 98 102 102 99 101 100 99 101 100 100 101 101 98 92 90 96 101 101 103 104 103 101 99 96 95 96 97 98 99 99 99 98 96 96 96 97 99 99 102 102 100 101 101 98 96 93 90 87
31 33 35 36 40 37 26 19 20 27 27 26 51 91 104 99 101 100 96 99 96 92 97 101 100 101 101 98 96 94 96 100 103 104 103 101 100 98 97 99 100 99 100 102 101 100 100 100 101 101 102 101 101 103 102 100 99 94 91 93 95 92 88
36 36 37 37 39 39 30 20 19 27 29 25 41 82 105 103 100 98 96 95 89 83 90 97 98 102 104 102 98 95 94 97 102 103 102 100 100 100 99 97 93 89 91 98 102 101 101 100 100 100 95 94 99 101 97 96 97 94 96 101 100 95 91
42 36 36 38 37 36 32 25 20 23 29 27 34 65 96 102 99 99 99 97 93 87 89 93 95 98 101 100 94 90 92 99 102 101 101 100 99 99 95 90 87 87 91 96 99 98 97 96 95 93 87 85 89 90 88 95 99 97 101 106 103 98 97
48 38 33 35 37 35 34 30 22 20 28 31 31 52 86 104 103 101 100 98 94 86 79 80 84 87 89 91 88 86 93 102 103 100 100 99 98 98 97 94 95 98 100 100 99 97 96 93 91 91 88 87 87 85 86 90 91 91 98 106 104 100 100
52 44 34 33 37 37 35 32 25 20 25 32 34 45 71 90 92 91 90 86 82 80 76 75 80 83 83 84 84 86 94 103 103 100 99 99 99 100 100 100 100 100 101 100 98 95 94 94 94 93 93 91 88 84 82 82 84 86 92 99 103 104 103
51 49 39 32 36 36 32 29 27 23 24 31 37 42 55 71 79 81 83 83 83 83 82 78 79 80 81 86 90 94 100 104 103 101 100 100 101 100 99 100 101 100 99 98 98 96 97 99 99 98 96 94 90 85 82 82 83 83 83 87 94 100 103
51 54 46 35 32 31 27 26 27 27 27 31 38 45 54 65 70 68 71 77 79 80 82 84 86 87 90 95 99 101 103 105 103 100 100 100 99 99 98 98 99 99 99 99 100 102 102 102 102 100 97 94 90 87 86 87 86 84 85 85 85 89 95
54 62 56 40 29 26 24 25 27 30 33 35 40 48 56 62 64 65 73 83 90 93 95 96 93 91 93 99 103 103 104 105 103 101 102 102 101 100 100 100 100 101 102 103 103 102 101 101 102 100 97 92 89 88 89 90 90 90 90 90 89 87 88
56 69 67 51 35 25 22 26 30 33 38 43 47 52 60 66 67 70 79 89 94 94 91 86 81 80 87 96 99 98 100 102 101 99 100 100 99 98 99 101 102 102 102 102 101 100 100 101 101 99 94 89 88 90 93 95 97 96 93 92 91 89 88
59 68 72 64 49 32 25 29 35 38 44 51 56 60 64 67 68 70 75 79 80 80 79 78 78 79 84 89 90 90 92 92 90 88 89 91 94 97 100 102 102 101 100 100 100 100 101 101 99 95 91 88 90 95 98 100 99 96 93 91 91 89 89
63 68 74 71 59 46 39 38 40 46 53 57 61 64 66 68 71 74 78 81 82 84 86 88 89 91 92 93 93 92 91 89 89 90 93 96 99 100 101 101 100 101 102 103 103 103 102 99 94 90 90 92 96 98 98 97 96 94 91 90 90 91 92
65 70 75 73 64 58 60 56 51 53 59 60 63 67 69 74 80 85 90 93 95 97 98 98 98 99 99 98 96 95 94 95 97 99 100 100 100 99 98 98 98 100 102 103 104 103 99 95 93 94 96 97 97 95 93 92 92 94 93 91 91 96 98
67 69 70 71 69 69 75 72 59 55 59 63 69 76 81 87 92 97 100 102 101 101 101 100 99 99 100 99 99 98 99 98 99 99 99 98 98 98 98 98 98 99 101 102 102 101 99 97 96 97 97 96 94 93 92 91 92 94 94 92 94 101 102
63 60 60 67 71 76 86 82 61 50 60 71 78 84 91 97 100 102 103 103 102 101 101 100 100 100 100 100 100 100 100 100 100 99 99 99 99 99 100 100 100 101 100 99 99 99 98 97 97 96 95 96 96 95 93 93 94 95 94 95 98 102 102
56 53 57 68 71 71 80 81 67 60 69 80 84 84 88 94 99 101 101 101 100 101 101 100 100 100 100 100 100 100 101 101 100 100 100 100 101 101 102 102 102 101 100 98 99 99 99 98 99 99 98 98 98 98 96 95 96 96 96 98 101 102 102
54 54 61 72 76 74 75 77 78 80 83 84 81 76 79 91 100 102 102 101 100 100 100 100 100 100 100 100 100 101 100 100 101 102 102 102 102 102 103 103 103 102 101 100 100 100 100 100 100 100 100 99 99 99 99 98 99 99 100 100 101 103 104
52 57 63 69 77 84 85 82 81 82 80 76 73 72 80 93 99 97 95 97 99 101 102 101 100 100 100 100 101 101 101 101 102 102 102 103 104 104 104 104 103 102 101 101 101 101 100 101 101 101 101 100 100 101 102 102 102 102 102 102 102 103 104
47 54 60 63 67 74 79 75 72 72 71 69 72 78 84 87 85 80 82 88 98 104 105 102 101 101 101 101 101 101 100 101 102 103 103 105 105 105 104 103 103 102 103 103 102 102 102 102 102 102 102 102 102 102 103 103 104 103 102 103 104 104 103
45 49 54 58 61 67 72 71 69 70 72 73 76 81 83 82 81 83 88 94 101 105 103 100 101 101 100 101 101 101 102 103 103 104 105 106 106 105 104 102 102 103 104 104 103 103 103 103 102 102 103 103 103 103 103 103 104 103 103 103 103 102 101
49 48 55 60 64 69 71 70 69 71 73 78 82 83 85 89 94 96 98 100 101 102 101 102 102 102 101 102 103 102 103 104 103 104 106 106 106 104 103 103 104 104 104 104 104 104 103 103 104 104 103 104 104 104 104 104 103 103 103 102 101 101 100
54 45 51 61 67 72 73 71 71 74 78 85 89 88 90 98 103 102 102 103 102 102 102 103 103 103 102 103 103 103 104 104 104 104 105 105 105 104 103 104 104 104 104 104 104 104 103 103 104 103 102 103 104 103 103 103 103 102 102 101 100 101 100
Wind_Speed
13 14 14 14 13 13 13 13 12 12 12 13 14 15 17 17 18 19 21 22 22 21 20 21 23 23 22 21 21 23 22 22 22 22 23 23 23 24 24 24 22 22 29 34 28 28 34 35 36 37 35 35 36 36 36 36 36 36 36 36 37 38 38
15 15 15 15 14 14 14 14 14 13 13 14 15 16 18 19 19 20 22 23 24 22 21 23 24 25 23 22 23 24 24 24 24 23 24 25 24 26 26 24 25 25 27 33 31 29 35 36 33 35 36 34 36 38 38 37 37 36 34 35 37 38 40
16 16 16 15 15 15 15 15 15 15 15 15 16 18 19 20 20 21 23 24 24 23 23 24 26 26 24 23 24 26 25 25 25 24 25 27 26 26 28 25 26 27 28 32 34 31 32 34 33 35 37 36 36 38 38 37 36 34 34 37 37 36 38
16 16 16 15 15 16 16 16 15 16 16 17 18 19 20 21 20 21 23 25 25 24 24 25 26 27 26 25 26 27 27 26 26 26 25 27 27 26 28 27 26 29 30 31 34 33 32 34 35 36 37 37 37 36 36 35 35 35 36 36 34 34 37
16 16 16 16 16 17 17 16 16 17 18 18 19 20 21 21 21 22 23 25 25 25 25 26 27 27 26 26 27 28 29 27 27 27 26 28 29 28 28 29 28 30 31 31 33 36 35 33 35 37 37 35 34 35 35 34 34 34 34 33 33 34 36
16 16 16 17 17 18 18 17 18 19 19 19 20 21 21 21 21 22 24 25 26 26 26 27 27 28 26 27 28 29 29 28 27 27 28 28 29 29 28 29 29 29 30 31 33 36 36 34 33 35 36 33 31 33 35 35 34 31 29 31 34 36 37
16 16 17 17 18 18 18 19 19 20 20 20 21 21 21 21 21 23 24 26 26 26 26 27 27 28 28 27 28 29 29 29 28 28 28 29 29 29 29 29 30 29 29 30 31 32 33 33 31 32 34 33 31 30 30 31 32 31 30 31 33 37 40
17 17 17 18 19 19 19 20 20 21 21 21 21 21 21 21 21 23 24 26 27 26 26 27 27 28 29 28 29 29 29 28 28 27 28 29 29 29 29 29 29 29 28 28 29 30 31 31 30 30 31 30 28 26 25 25 28 32 35 35 34 34 38
17 18 18 19 19 20 20 21 21 21 21 21 20 20 20 20 21 22 24 26 27 27 27 28 29 29 30 30 30 30 29 28 27 27 29 30 29 28 29 29 28 27 27 27 27 28 28 27 27 27 27 26 24 23 25 28 31 33 36 37 37 35 34
18 19 20 20 20 20 21 22 21 20 20 20 20 20 20 21 22 23 25 28 29 30 30 30 30 30 30 30 30 29 29 29 29 28 28 28 27 27 28 28 28 27 26 25 24 24 24 23 23 23 24 26 26 26 29 32 31 33 36 35 34 33 29
19 20 20 20 21 22 22 22 21 19 19 18 18 19 21 23 25 26 27 29 31 32 32 31 31 31 30 30 30 28 27 26 26 25 24 24 25 26 28 28 28 27 26 24 24 23 22 21 22 24 26 28 29 29 30 32 31 32 33 29 24 25 25
20 20 20 21 22 23 23 22 20 18 18 18 18 19 21 23 25 27 28 30 31 31 32 33 33 32 31 30 28 25 25 25 26 27 27 28 29 29 29 28 28 28 28 27 26 26 25 25 25 28 29 29 30 31 32 32 31 29 29 27 23 23 28
21 20 20 21 22 22 23 22 20 19 19 19 18 18 21 22 25 27 29 30 31 31 32 32 31 30 30 30 29 28 28 30 31 32 31 31 30 29 29 28 27 27 27 28 28 29 31 31 29 29 31 31 31 34 33 31 30 28 27 26 24 26 32
20 20 21 21 21 23 23 23 21 20 19 19 18 19 20 22 24 27 29 30 30 31 31 31 31 31 32 34 35 34 33 33 32 31 30 29 29 29 28 27 26 26 26 27 28 31 34 33 30 31 34 33 33 34 33 30 28 27 26 26 29 33 38
20 20 21 21 22 23 25 24 22 21 21 20 19 19 21 22 25 28 30 32 32 33 34 34 34 34 34 35 36 34 32 30 29 29 28 28 28 28 28 28 27 26 26 27 28 30 32 32 31 32 33 32 30 29 27 25 26 28 30 33 36 36 35
20 21 22 23 23 24 26 25 24 22 21 21 20 20 21 23 25 28 31 33 33 34 34 34 33 33 33 34 33 31 29 28 27 26 27 27 28 28 28 28 26 24 24 25 26 28 30 30 29 28 28 27 27 26 25 26 30 32 32 31 31 30 29
21 22 23 24 25 26 27 26 24 23 22 22 21 20 21 23 25 28 31 33 33 33 33 32 31 31 31 31 31 30 28 27 25 25 26 27 27 27 28 29 28 26 25 25 26 26 26 26 26 26 28 29 28 27 27 29 30 29 26 23 21 21 23
22 23 25 26 26 26 28 28 25 23 23 23 22 21 21 23 25 28 31 32 32 31 31 31 31 29 29 30 30 29 28 25 23 24 25 25 26 28 31 32 29 27 24 23 24 25 26 28 29 30 32 32 30 27 25 24 26 26 24 22 18 19 24
24 26 26 27 27 27 28 29 25 22 23 24 22 20 21 22 24 27 29 30 31 32 32 32 32 30 29 30 29 28 26 22 21 23 25 25 27 29 30 29 25 23 22 24 27 29 30 32 32 32 31 30 28 26 23 22 24 24 23 23 22 21 21
26 28 28 28 28 28 28 28 25 22 23 24 21 18 18 21 24 27 29 30 31 33 34 33 33 31 30 29 28 28 27 23 22 23 24 25 25 26 26 25 25 25 27 28 31 32 32 32 32 31 30 29 27 25 22 21 21 21 22 23 25 24 19
27 29 29 29 29 29 28 27 26 24 23 22 20 17 16 19 23 25 27 30 31 32 34 34 33 32 31 29 29 29 27 24 22 22 23 24 26 27 27 27 28 29 29 29 30 31 32 32 31 30 29 27 26 25 22 20 19 19 20 22 25 26 24
28 29 30 30 29 29 27 25 25 25 23 21 19 18 17 19 21 22 24 28 31 32 33 33 33 33 31 30 30 29 27 25 23 23 25 27 28 29 28 27 28 28 28 29 30 30 32 31 29 28 28 27 26 25 22 21 20 20 20 22 24 27 28
28 28 30 31 30 29 27 26 26 25 24 22 21 20 19 19 20 21 22 27 30 31 32 32 33 33 33 31 30 30 28 26 25 26 28 28 27 26 24 24 26 27 28 30 30 29 30 30 27 26 27 27 26 25 23 22 23 23 23 24 25 26 29
28 27 29 31 31 29 27 27 27 26 25 24 22 22 21 20 20 21 21 25 29 30 31 33 33 33 33 32 31 31 31 30 30 31 31 29 27 26 25 26 27 28 28 28 29 28 29 29 27 26 27 27 26 26 25 24 25 25 25 25 27 28 29
27 27 28 30 32 32 30 28 28 28 26 25 23 23 22 21 21 21 21 24 28 30 31 31 32 32 32 33 34 35 35 35 34 32 31 29 27 26 25 25 27 27 27 27 28 28 28 29 28 26 27 27 27 26 26 26 26 26 26 26 27 29 30
27 28 28 29 32 33 32 30 30 30 28 25 24 23 22 22 22 23 24 26 28 29 30 30 31 32 33 34 34 34 33 33 31 29 28 27 25 24 26 27 27 28 27 28 28 28 29 30 29 28 28 28 27 27 27 26 25 26 26 26 27 29 31
27 27 28 29 31 32 31 31 31 31 29 26 24 23 23 24 26 26 27 28 29 29 29 30 31 31 31 31 31 30 30 30 30 29 28 28 27 27 28 28 28 27 28 29 29 29 30 30 29 29 28 27 27 28 27 25 24 25 26 25 26 27 29
27 29 29 29 31 31 30 31 32 31 28 25 24 26 27 28 29 30 30 30 30 29 29 29 29 29 28 27 28 28 28 28 29 29 29 28 28 27 27 26 26 26 28 29 29 29 30 30 29 28 28 27 27 27 27 25 24 24 25 25 24 24 25
29 30 30 30 31 30 29 32 33 31 28 28 28 29 30 31 31 30 29 29 27 27 28 28 27 27 26 25 25 26 26 27 27 28 28 28 27 26 25 24 25 26 27 28 28 28 29 29 28 28 27 26 26 27 26 25 24 24 24 23 22 23 24
28 29 28 30 32 31 30 33 34 32 31 31 31 31 31 31 28 26 26 26 25 25 27 27 27 26 25 24 25 25 26 26 26 27 28 27 25 24 24 24 24 25 26 26 27 27 28 27 27 27 27 26 26 27 26 24 23 23 23 22 22 23 23
26 26 26 28 32 32 32 33 33 32 32 32 32 31 31 29 26 23 23 23 23 25 27 26 26 27 25 23 24 26 26 26 26 26 27 27 26 25 24 23 24 25 24 25 26 26 27 27 27 27 27 26 27 27 26 25 24 22 22 22 23 23 24
25 26 25 26 28 30 31 32 31 31 31 31 30 30 29 27 25 24 23 22 23 26 28 27 26 27 26 25 25 26 26 26 26 26 26 26 26 26 25 23 24 24 24 25 26 26 27 27 26 27 27 26 27 27 26 25 23 22 22 23 23 23 24
24 24 24 23 24 25 27 29 29 29 30 29 27 27 26 26 26 24 23 23 24 27 29 27 26 27 27 26 27 27 27 27 27 26 26 26 26 28 27 26 26 25 25 26 26 27 27 27 26 26 27 26 26 26 26 25 23 22 22 22 21 22 22
25 24 24 24 24 24 25 26 26 26 26 25 24 25 24 25 25 24 23 23 25 27 28 27 26 27 28 27 28 27 27 27 27 26 26 26 27 28 29 28 27 26 26 26 27 27 28 28 27 26 26 26 26 26 25 25 23 22 21 21 21 21 22
31 28 27 28 28 27 25 24 23 23 23 22 23 24 23 23 24 25 24 23 24 26 28 28 27 28 29 28 28 28 27 28 28 28 27 27 27 28 28 28 26 26 26 26 27 27 27 27 27 26 26 26 26 25 25 24 23 22 22 22 21 21 21
35 34 31 31 29 26 23 22 22 23 24 23 23 22 21 21 23 25 24 23 24 25 27 28 28 29 30 29 29 29 28 28 28 28 28 28 28 28 28 28 27 27 26 26 26 27 27 27 27 27 26 26 26 26 26 25 24 23 23 23 22 22 22
Wind_Direction
243 246 249 252 257 263 268 272 275 278 279 282 285 287 288 288 287 286 286 286 287 288 289 289 288 288 290 291 291 291 292 292 292 291 289 287 283 278 277 270 261 263 277 285 288 292 297 302 304 305 307 309 311 312 312 313 313 315 317 318 318 319 319
245 247 250 254 259 264 269 273 277 279 282 284 286 286 286 287 287 285 285 285 286 288 290 290 289 289 292 294 293 292 293 292 293 292 289 288 284 279 279 275 267 265 275 286 291 295 298 301 304 304 305 308 309 310 312 312 313 316 317 317 318 317 317
246 248 251 256 261 265 269 273 277 281 284 285 286 286 285 286 286 285 285 285 287 289 291 290 290 291 294 296 294 293 293 293 292 291 289 290 287 282 281 280 275 270 272 282 290 295 297 300 303 302 304 307 308 309 311 311 313 315 315 316 317 316 315
246 249 254 259 264 266 269 273 278 281 283 284 284 284 284 286 285 284 284 286 288 290 291 291 291 293 295 295 293 292 293 292 291 291 290 290 289 285 284 284 280 274 273 279 287 291 294 298 301 301 303 307 308 309 310 310 311 313 313 314 315 314 314
248 254 259 262 265 268 271 275 279 280 281 282 282 283 283 285 285 284 284 285 287 288 289 291 291 293 296 294 291 291 292 292 291 291 290 290 289 287 286 285 282 278 276 276 281 287 293 296 298 300 302 306 308 309 309 309 310 312 313 313 314 313 313
253 257 261 263 265 269 273 277 278 278 280 282 282 283 284 285 284 284 284 284 285 287 288 290 291 293 294 292 290 290 292 293 292 291 291 290 290 289 287 283 280 279 278 275 278 284 290 294 297 299 301 304 307 307 307 309 310 310 312 313 314 314 313
255 257 261 263 267 271 274 277 277 279 281 282 284 285 285 285 285 283 283 284 285 287 288 289 290 292 293 292 291 292 293 293 292 290 290 290 290 289 286 282 280 279 278 277 279 282 286 291 294 295 296 301 306 305 304 308 311 312 314 315 314 314 314
258 261 263 265 269 271 273 275 277 279 282 284 286 288 287 287 286 284 283 283 285 287 288 289 291 293 294 294 294 294 294 292 291 290 289 290 291 288 284 281 280 279 277 276 278 280 283 288 291 292 295 301 306 306 306 312 314 312 312 314 313 312 312
262 264 265 267 269 271 273 275 276 280 284 286 287 288 288 286 285 286 286 286 288 290 290 292 294 296 297 297 297 297 295 294 293 289 285 286 287 285 282 279 278 277 277 276 275 278 282 285 286 290 297 302 306 308 309 313 313 309 309 311 310 309 310
263 265 267 268 270 272 274 275 278 282 285 287 290 291 292 291 290 291 292 292 292 293 294 295 296 296 296 295 294 294 292 291 292 290 287 286 285 281 278 276 276 275 276 275 275 278 283 285 285 291 298 301 304 307 309 311 311 307 308 311 311 311 313
263 264 267 270 273 274 275 276 280 284 286 289 290 286 285 289 290 290 290 289 289 290 291 292 292 292 292 290 289 289 288 287 287 286 284 282 278 274 273 274 277 279 279 279 280 282 285 286 288 295 299 300 303 306 306 306 306 303 305 309 311 310 311
264 265 268 271 273 275 277 280 284 286 287 290 287 277 274 278 281 281 282 282 282 283 285 287 288 288 288 287 286 284 283 281 280 279 279 278 277 274 272 271 273 276 278 279 281 283 283 283 287 293 296 297 301 302 301 301 300 299 300 301 301 299 300
265 267 270 273 276 279 281 283 286 288 289 291 289 279 273 273 275 276 277 278 279 281 282 284 284 284 283 282 281 280 281 282 283 285 285 285 285 282 279 277 274 272 272 273 276 278 278 279 284 289 290 294 298 297 296 296 296 297 297 297 297 296 298
267 270 273 278 281 284 284 285 288 291 292 293 291 283 277 275 275 275 275 276 276 276 276 277 277 278 279 280 281 283 286 287 289 290 290 290 289 287 286 285 282 279 276 273 272 272 274 278 282 283 287 293 295 292 291 293 296 300 302 300 297 296 296
272 275 279 283 286 286 284 286 290 292 293 295 291 283 278 276 274 273 273 273 272 272 273 274 275 276 278 280 284 287 290 290 292 292 291 290 289 288 288 287 286 285 283 281 278 275 276 280 283 285 289 295 297 295 295 299 299 300 303 303 301 298 297
276 280 283 285 286 286 285 286 290 293 294 295 291 284 279 277 274 274 274 274 275 276 276 277 277 278 280 283 286 290 291 292 292 290 288 287 287 288 288 286 286 284 281 279 279 279 281 284 288 291 293 296 299 301 303 304 300 299 304 307 304 301 300
279 281 283 284 285 286 287 287 290 294 295 295 294 288 281 278 277 277 277 278 279 279 280 280 281 281 282 284 287 291 293 293 291 286 284 285 285 287 286 285 286 287 283 279 277 276 278 280 283 286 286 288 292 296 299 301 299 301 307 308 303 301 302
281 281 281 283 285 286 288 288 292 296 295 295 296 291 282 279 279 278 278 280 281 282 283 284 284 283 283 285 288 292 293 290 286 282 280 281 282 284 284 286 290 292 288 282 277 275 276 278 281 283 285 287 291 293 295 294 291 295 299 296 291 294 300
282 281 281 283 285 287 288 290 293 296 294 296 299 294 284 279 278 277 277 279 281 283 285 285 285 285 285 286 289 291 290 284 279 277 276 277 279 279 281 287 290 288 284 283 283 284 285 286 287 289 289 291 293 294 295 291 288 290 289 284 283 287 297
281 282 282 284 286 288 289 291 293 294 295 297 298 293 283 276 273 273 276 279 282 284 286 286 287 287 288 289 290 290 289 283 276 274 276 277 275 274 278 283 284 281 282 286 287 288 289 289 289 290 290 291 293 294 295 292 289 287 280 276 278 281 282
282 283 283 285 287 288 289 291 293 294 297 298 298 295 287 278 274 276 279 281 282 283 284 285 287 289 291 292 291 290 287 282 277 275 275 273 271 273 277 280 281 282 284 286 286 287 287 287 287 288 288 290 291 292 293 291 287 284 278 274 274 276 276
282 284 285 287 288 289 291 292 294 297 299 300 300 299 293 283 281 282 282 281 281 281 282 284 287 290 292 292 290 288 284 279 277 275 272 271 272 276 278 278 279 281 283 283 283 284 284 283 284 285 286 288 290 291 292 291 288 285 281 277 274 274 274
283 284 287 289 289 290 292 294 297 301 303 303 303 302 298 291 289 288 284 280 279 280 282 285 287 290 291 289 287 286 284 280 278 277 275 275 276 276 276 275 276 277 279 280 281 280 279 279 279 281 284 287 289 292 293 291 290 288 285 281 279 278 275
284 284 286 290 292 292 294 297 301 303 303 304 304 302 298 295 292 289 284 278 277 279 282 285 288 289 289 287 285 285 285 283 281 279 278 278 277 276 274 274 275 276 277 277 276 274 274 275 277 279 283 287 292 295 295 292 290 289 288 285 284 284 282
283 284 285 288 291 293 296 301 303 303 303 303 302 300 298 296 293 290 285 280 279 281 284 286 287 287 285 284 284 285 285 284 283 283 283 282 282 280 277 275 274 275 274 272 270 270 272 274 278 281 286 291 294 294 292 290 289 289 289 288 287 286 285
282 284 284 284 287 290 296 300 301 300 301 302 301 300 299 298 296 294 291 287 286 286 287 287 286 285 284 284 285 286 287 287 287 288 287 285 282 278 275 273 273 272 270 268 269 271 272 276 281 286 289 291 291 289 289 289 289 288 289 289 290 288 286
279 280 279 281 285 288 292 296 297 297 298 301 302 302 302 301 299 298 296 293 292 292 291 290 288 286 286 286 287 287 287 287 287 286 284 282 280 278 276 275 274 272 270 269 270 272 275 280 284 287 287 288 288 287 288 289 288 287 287 290 291 287 285
278 277 277 279 283 287 289 290 292 294 297 302 303 303 303 301 299 298 297 296 296 297 296 294 291 288 287 286 286 285 285 285 285 285 284 284 283 282 280 278 277 274 271 270 271 273 276 280 283 284 284 286 286 285 287 289 288 285 286 289 289 283 282
277 278 281 281 281 282 282 283 289 296 299 300 301 300 299 298 296 296 295 294 296 296 294 290 287 284 282 282 282 283 283 284 285 286 286 286 285 284 282 280 276 272 271 272 272 272 274 278 280 281 283 284 284 284 287 289 288 285 286 287 282 276 278
278 281 284 282 281 281 279 281 288 296 298 297 298 298 297 295 292 290 289 289 291 290 285 282 280 278 278 278 279 280 281 283 285 286 286 286 286 284 282 280 277 274 275 276 275 273 274 276 277 279 281 283 283 285 288 288 287 286 284 282 277 274 277
280 283 283 280 280 283 284 284 288 291 293 295 296 296 295 292 289 286 285 286 287 284 278 276 276 276 277 276 277 278 280 282 283 283 284 286 287 285 282 279 278 278 279 278 276 275 275 275 275 277 280 281 282 285 287 287 286 285 281 276 274 273 276
286 285 283 280 279 280 282 285 287 288 290 292 294 294 293 291 289 287 286 285 281 276 273 272 272 274 276 277 276 277 279 280 280 280 282 284 286 286 285 281 281 283 283 280 278 277 276 275 276 277 279 281 282 284 285 285 284 282 279 277 274 272 273
291 289 287 286 283 280 280 283 286 289 291 293 294 293 292 292 291 290 289 285 277 271 270 270 270 271 273 275 276 277 279 279 279 280 282 282 283 285 286 286 287 287 284 279 278 277 276 276 277 278 279 280 281 281 282 282 281 280 279 276 273 273 274
296 295 295 294 292 289 287 287 290 293 294 295 295 294 295 296 295 291 286 280 271 266 267 269 269 271 273 275 276 277 279 280 281 282 283 283 284 285 287 289 289 286 282 281 280 279 277 277 277 277 277 278 279 279 279 278 278 278 277 273 272 274 275
300 301 300 299 298 296 296 297 299 300 299 296 295 297 300 299 294 287 281 274 268 266 267 268 269 271 273 275 277 278 280 281 283 284 284 284 285 286 287 288 287 284 282 282 281 279 278 278 278 277 276 276 277 277 276 276 276 275 274 273 273 275 276
299 303 303 301 300 300 302 305 305 305 302 298 296 299 300 293 285 281 278 275 272 271 271 271 271 272 274 276 278 279 281 282 283 284 285 285 285 285 285 285 284 283 283 283 281 279 280 279 277 277 276 275 274 273 273 274 275 275 273 273 274 274 276